Theta_e
317 315 313 311 308 309 309 307 308 306 306 305 305 303 303 304 304 302 302 302 302 303 303 305 305 305 304 304 304 304 304 305 310 312 315 315 314 313 315 312 312 308 308
314 314 312 311 311 309 308 306 306 304 304 303 303 304 302 301 302 300 299 300 300 301 302 302 302 304 304 305 305 304 304 305 306 307 310 310 311 312 311 310 311 310 306
314 312 310 308 308 307 305 305 305 304 303 303 302 301 302 301 300 300 300 299 299 300 301 302 302 301 300 301 302 302 303 305 305 304 305 307 306 307 309 309 308 309 308
310 310 307 306 308 306 305 306 304 304 304 303 302 301 300 300 300 300 301 302 301 301 303 302 302 301 301 302 301 301 302 302 303 303 303 303 304 305 304 303 303 305 306
309 307 305 305 308 305 306 306 305 305 304 304 302 301 300 298 299 300 301 302 302 302 304 303 304 304 305 303 300 300 301 301 301 301 300 300 300 300 299 301 300 303 302
307 306 307 305 305 306 306 306 305 304 304 303 303 301 299 299 300 301 301 301 302 303 302 304 304 304 304 304 304 304 303 301 301 300 299 298 299 302 301 300 301 300 297
307 305 305 307 305 306 306 305 304 304 304 304 303 302 302 300 299 299 302 302 303 303 303 304 304 303 302 303 305 305 305 306 305 304 300 301 302 303 303 302 302 303 300
305 304 306 307 306 306 306 304 304 305 305 304 303 304 304 301 300 299 301 307 306 305 304 304 304 303 300 301 304 304 303 302 303 305 304 303 302 304 303 304 304 305 306
304 304 307 308 306 307 305 304 304 303 302 303 305 305 304 303 299 298 301 304 304 304 305 302 302 302 300 300 304 303 303 302 302 303 301 301 301 301 302 304 303 302 301
305 306 307 308 308 307 308 305 305 304 304 304 304 305 304 304 299 298 300 305 305 304 305 305 301 299 298 299 304 302 300 301 303 303 303 301 304 303 306 305 303 300 301
307 306 307 308 309 309 309 308 306 304 304 304 304 305 306 304 305 298 298 305 304 303 303 303 303 299 297 298 300 300 299 302 302 303 301 302 304 304 304 304 303 301 299
307 306 307 309 309 309 309 309 307 306 304 303 303 304 305 305 302 301 298 299 301 302 301 302 302 297 297 297 300 298 298 302 301 300 300 300 301 301 302 303 303 302 302
307 307 307 309 309 311 309 308 306 306 304 303 302 301 302 305 306 301 299 299 301 304 305 301 299 298 299 301 299 300 301 301 300 298 298 299 301 302 303 303 303 301 301
306 307 306 309 309 310 308 308 306 305 304 302 303 303 304 305 305 304 304 307 303 304 304 303 301 301 300 301 301 302 301 301 300 299 299 300 301 301 300 301 299 298 297
307 308 307 306 307 309 309 305 306 305 301 303 304 306 303 301 301 296 296 301 300 300 301 303 301 300 300 300 301 301 301 301 300 300 300 299 299 300 299 300 299 297 296
307 307 305 307 308 307 308 304 298 298 297 295 294 296 304 297 294 294 293 294 295 294 302 302 301 300 299 299 299 300 302 301 300 300 300 299 299 298 298 298 299 297 297
307 308 306 306 306 306 304 307 303 304 299 297 295 296 296 295 295 294 295 296 295 300 301 300 301 302 301 301 300 300 300 301 303 300 299 299 299 299 298 298 298 299 297
309 301 306 307 306 306 307 306 308 305 306 305 299 298 296 297 296 294 295 300 302 302 301 300 301 303 303 303 301 301 302 302 303 303 302 299 300 299 298 298 299 299 298
309 306 307 307 307 307 307 308 308 307 306 304 306 302 301 298 297 296 297 302 300 300 301 300 302 303 304 303 303 303 304 303 302 303 304 304 304 302 300 299 297 292 294
306 302 304 306 306 306 307 307 306 307 303 302 302 303 305 300 301 301 302 302 302 301 300 301 301 302 304 303 302 303 304 303 303 302 304 305 304 304 302 301 299 298 299
307 307 294 304 305 305 306 306 305 306 305 304 304 302 286 301 301 301 301 302 302 302 301 301 301 302 303 302 303 302 302 301 301 302 305 305 306 304 304 303 300 300 299
309 306 305 305 305 304 305 305 305 304 303 301 301 300 290 302 302 301 301 301 302 302 303 302 302 301 303 302 301 300 299 297 299 301 302 305 306 305 304 302 302 300 299
308 306 305 305 306 299 303 303 303 302 302 303 302 302 302 301 301 301 301 301 302 302 303 302 302 302 303 304 302 300 296 294 295 298 302 303 306 306 304 304 303 301 301
307 306 304 304 303 303 302 302 302 297 300 301 301 301 301 301 301 301 302 301 302 303 303 302 302 302 302 303 301 300 294 291 291 297 297 300 305 305 307 306 305 305 304
307 306 305 304 303 302 302 302 301 301 301 300 300 300 301 301 301 301 301 301 301 302 302 302 302 302 301 301 298 295 288 285 288 287 294 300 304 308 307 307 306 306 306
306 306 305 304 303 302 302 301 301 300 300 300 300 300 300 301 301 301 300 301 302 301 300 301 300 301 300 299 294 288 286 285 287 285 288 298 305 309 309 307 308 305 305
Wind_Speed
12 10 12 12 11 9 10 11 12 11 11 12 10 12 13 12 12 11 11 11 11 10 11 10 8 6 5 7 7 6 8 6 6 4 5 6 7 4 4 8 10 8 6
8 12 12 11 12 11 12 12 11 11 11 11 12 9 10 12 12 11 11 10 10 10 9 11 12 8 10 9 6 8 7 9 6 8 3 4 6 5 3 6 4 6 7
12 12 13 10 10 14 10 10 11 10 10 10 10 12 8 9 10 9 8 8 7 6 8 8 9 9 9 7 7 7 5 4 6 5 4 4 4 2 3 3 5 2 7
13 12 12 12 12 9 8 10 10 10 10 9 9 10 11 9 10 10 9 7 4 4 3 8 9 9 8 7 5 7 5 4 2 4 2 2 5 5 6 3 5 5 4
12 13 11 10 10 8 10 10 9 9 9 9 9 9 9 9 10 11 12 10 9 8 5 7 8 12 16 13 6 8 9 6 1 3 6 8 7 6 5 2 4 4 2
11 10 10 10 9 10 9 10 11 11 9 10 11 11 11 8 16 18 14 7 9 10 7 6 8 12 11 9 10 14 11 8 9 7 7 6 6 4 2 2 3 2 1
13 10 10 11 11 12 11 11 10 9 9 9 10 7 9 11 18 17 14 4 6 7 10 8 8 8 11 9 7 5 9 10 9 6 7 5 5 2 2 4 2 1 1
11 10 10 10 10 11 11 11 12 11 12 11 10 9 8 11 19 18 14 4 4 9 11 11 10 10 9 9 7 6 7 7 8 5 4 5 4 6 5 4 4 3 1
9 10 9 10 10 9 8 8 6 9 10 10 10 12 12 10 19 18 13 6 5 8 8 10 9 9 13 15 9 7 8 6 5 7 7 8 8 7 5 3 3 1 3
9 9 10 10 10 10 9 8 11 5 8 8 9 10 10 10 13 17 15 7 8 5 5 7 13 10 11 14 9 8 8 8 5 3 3 3 2 3 8 8 6 5 3
9 8 8 8 7 9 9 10 10 8 9 10 9 6 7 8 10 14 16 10 8 8 8 7 7 11 12 11 11 7 5 3 7 6 5 4 3 7 7 7 8 7 6
8 6 6 6 6 5 8 8 9 9 9 10 10 9 9 6 9 10 10 13 12 7 7 6 7 9 8 11 6 7 9 6 5 6 6 5 5 5 4 5 8 8 6
5 5 6 6 6 5 7 8 7 8 8 7 8 9 8 8 8 10 11 10 11 7 5 5 8 11 10 6 10 10 8 5 4 4 4 4 3 3 4 5 4 8 7
5 4 5 5 5 7 7 6 7 7 6 7 7 7 7 8 8 8 8 5 6 5 8 8 6 6 8 8 8 7 4 5 4 3 3 2 2 4 4 3 4 3 4
4 1 4 5 4 5 5 6 6 5 4 6 6 5 6 6 7 8 6 6 4 7 7 5 6 6 6 7 5 6 4 5 5 3 3 3 3 4 4 3 3 4 4
4 4 4 3 0 3 2 3 4 1 4 7 8 4 4 4 11 10 9 9 13 10 4 4 2 4 5 5 5 6 6 4 4 4 3 3 4 4 3 3 3 2 2
2 3 3 4 3 5 3 1 3 5 8 6 10 5 6 7 13 15 13 8 10 10 8 9 7 4 3 4 4 4 3 4 4 3 3 3 3 3 3 2 2 2 3
3 1 3 3 2 4 6 4 2 3 3 2 4 5 9 8 11 14 14 11 9 8 7 8 8 6 6 5 4 5 4 4 3 3 3 3 2 2 2 2 2 2 2
2 4 4 3 4 4 5 4 4 4 6 6 3 2 7 10 5 5 11 7 7 8 6 7 7 7 6 7 6 4 3 3 3 3 2 1 3 2 4 3 3 3 2
5 2 3 5 4 4 4 6 6 4 4 3 4 7 8 8 6 8 6 5 6 6 7 7 5 7 4 6 6 7 5 7 5 4 4 3 2 1 2 4 3 1 2
4 6 2 4 4 4 4 4 4 2 3 5 5 6 5 4 5 5 5 6 6 6 6 6 7 8 6 6 5 6 7 6 6 5 4 5 2 2 3 3 3 3 2
2 6 2 5 3 3 6 3 4 5 5 4 3 2 5 3 3 4 6 5 5 4 4 5 4 5 6 5 6 7 7 7 7 7 7 5 4 3 1 3 3 3 2
5 4 2 3 3 5 3 4 5 5 6 4 6 7 6 6 6 6 5 4 5 4 4 4 4 5 6 5 6 5 6 7 7 8 8 7 7 3 3 3 4 3 3
4 1 3 4 4 6 6 6 6 7 6 8 7 6 6 6 6 4 5 6 7 6 4 5 5 8 7 6 7 7 6 8 7 7 10 7 6 4 4 4 4 6 6
4 3 3 3 3 3 4 4 6 6 7 7 8 6 6 5 5 5 6 6 5 6 7 7 7 8 10 13 12 14 10 10 9 8 7 7 8 8 6 7 5 7 8
5 6 5 3 3 3 3 3 4 5 5 6 6 5 5 6 5 6 6 4 3 2 4 4 8 10 12 11 13 11 10 13 12 11 8 6 5 6 5 5 8 3 5
Wind_Direction
28 36 24 21 10 353 16 8 20 15 9 7 10 10 6 11 19 15 15 17 23 21 15 19 16 34 25 25 12 6 35 351 109 80 74 83 118 77 82 130 137 117 100
14 32 26 16 5 10 19 28 20 12 16 6 358 18 20 16 14 16 13 9 15 14 20 19 18 17 18 18 13 21 8 48 47 89 106 89 100 109 80 63 81 122 131
28 36 24 10 7 28 30 20 17 10 8 7 8 4 12 28 9 2 0 357 358 3 17 17 35 27 20 9 9 15 354 11 76 75 31 52 75 16 100 104 65 126 123
48 38 26 3 10 27 13 21 11 2 359 9 10 7 7 16 12 350 342 326 281 303 49 41 39 36 27 1 0 355 336 355 49 96 154 122 99 52 67 48 65 49 52
35 32 16 356 16 14 14 15 7 2 9 10 9 12 15 25 11 353 352 16 16 19 46 67 51 51 50 46 32 18 9 29 336 56 78 69 63 61 56 360 63 91 53
40 26 19 25 14 21 16 15 6 7 10 7 21 35 27 17 355 360 2 6 20 28 29 46 58 28 30 41 46 51 46 22 26 60 75 76 64 55 87 91 75 140 166
45 22 20 24 21 23 15 12 9 5 12 6 14 26 39 14 358 353 347 355 22 32 34 27 39 38 14 359 340 89 62 44 41 54 68 58 90 57 50 94 76 102 153
52 20 19 36 32 24 20 10 10 8 11 10 8 10 26 18 5 5 347 32 55 59 41 21 27 31 7 353 350 65 77 48 30 44 64 55 48 39 26 1 339 330 314
42 17 25 27 27 20 14 358 358 11 11 7 6 13 15 33 7 1 358 36 39 43 57 44 29 28 358 360 24 69 62 83 79 72 76 69 51 43 3 319 23 23 91
30 29 11 23 25 19 20 27 25 13 12 12 15 16 10 9 16 360 3 21 18 40 45 54 38 24 7 14 37 48 49 32 12 78 82 99 356 83 26 34 15 26 23
51 25 8 12 23 17 20 28 27 23 20 23 16 14 9 13 14 17 10 19 9 19 25 33 31 13 11 24 46 42 24 359 38 51 56 45 45 54 49 37 51 45 31
44 12 7 344 22 28 38 40 35 24 21 15 18 14 16 19 15 20 11 17 13 29 16 4 6 11 16 14 45 29 44 40 48 45 44 37 42 42 30 45 62 61 42
41 353 329 7 21 18 41 39 23 27 15 25 25 27 21 16 15 26 35 23 20 30 20 10 3 21 24 10 23 40 44 50 54 56 47 46 36 25 35 64 84 77 55
23 10 328 354 17 16 25 38 36 28 22 30 24 29 25 14 8 354 352 2 11 19 20 29 37 16 29 15 25 34 40 38 44 64 48 29 29 46 44 57 81 92 63
339 357 32 354 38 12 65 21 32 50 2 11 6 15 10 359 331 309 295 329 345 325 322 36 35 30 20 18 15 14 36 34 37 34 34 44 40 69 56 49 65 71 79
21 27 28 333 161 339 96 162 51 356 275 278 272 310 356 360 340 333 336 323 329 346 7 35 48 42 37 20 16 6 15 31 29 33 48 50 67 60 67 54 60 73 90
100 37 1 347 354 352 325 69 199 238 245 298 278 311 349 333 348 355 9 13 6 25 29 18 20 44 44 29 17 9 356 357 2 103 55 44 68 66 64 61 61 69 62
115 6 360 13 340 347 351 356 22 22 55 183 283 45 357 336 328 346 13 14 18 23 17 21 10 19 11 45 19 1 358 354 353 353 121 110 95 98 82 54 44 74 103
121 56 343 345 34 321 303 30 51 25 28 11 349 13 27 344 356 300 39 27 19 9 12 12 5 13 19 17 2 341 341 26 356 334 323 346 185 180 140 118 96 66 326
124 97 292 315 327 351 7 31 44 56 53 33 354 12 6 7 14 30 27 11 25 8 1 5 15 352 30 23 8 349 9 5 7 353 338 299 289 65 122 126 136 147 65
124 110 10 290 355 347 5 40 24 58 8 13 24 37 356 12 15 16 14 21 16 5 356 357 2 358 11 18 10 357 1 6 346 326 330 343 271 184 155 115 109 113 174
168 97 66 328 3 15 355 351 5 11 35 31 9 30 341 330 339 346 24 29 4 356 343 339 354 354 347 22 23 359 6 351 341 335 331 338 342 164 218 147 138 157 156
76 57 22 345 45 6 324 349 349 354 356 11 4 1 357 351 357 23 25 2 355 345 342 341 346 356 347 33 18 16 10 339 328 317 322 331 337 157 230 169 163 177 203
97 110 53 19 23 12 10 14 9 9 357 3 0 6 17 350 342 28 5 14 356 344 2 22 6 1 350 25 26 10 16 341 322 315 332 311 313 299 207 249 203 214 204
52 2 344 79 8 359 348 355 5 6 2 4 348 354 5 352 2 7 13 355 352 354 2 7 2 7 3 21 16 1 353 329 322 314 308 302 291 300 293 214 220 237 227
328 30 334 71 91 306 307 26 24 4 360 6 342 338 7 353 356 360 343 306 305 17 24 13 0 1 18 10 2 346 352 339 331 325 313 273 270 296 312 344 351 343 264